TimeAKDT,TemperatureF,Dew PointF,Humidity,Sea Level PressureIn,VisibilityMPH,Wind Direction,Wind SpeedMPH,Gust SpeedMPH,PrecipitationIn,Events,Conditions,WindDirDegrees,DateUTC
12:53 AM,48.9,30.9,50,29.80,10.0,North,9.2,-,N/A,,Scattered Clouds,10,2013-08-27 08:53:00
1:53 AM,45.0,33.1,63,29.81,10.0,NNE,8.1,-,N/A,,Scattered Clouds,30,2013-08-27 09:53:00
2:53 AM,44.1,32.0,63,29.81,10.0,NE,9.2,-,N/A,,Scattered Clouds,50,2013-08-27 10:53:00
3:53 AM,43.0,32.0,65,29.81,10.0,NE,9.2,-,N/A,,Scattered Clouds,40,2013-08-27 11:53:00
4:53 AM,43.0,32.0,65,29.82,10.0,NNE,8.1,-,N/A,,Scattered Clouds,30,2013-08-27 12:53:00
5:53 AM,41.0,32.0,70,29.82,10.0,ENE,6.9,-,N/A,,Scattered Clouds,60,2013-08-27 13:53:00
6:53 AM,41.0,32.0,70,29.83,10.0,ENE,4.6,-,N/A,,Mostly Cloudy,60,2013-08-27 14:53:00
7:53 AM,43.0,34.0,71,29.83,10.0,ENE,3.5,-,N/A,,Mostly Cloudy,70,2013-08-27 15:53:00
8:53 AM,46.0,34.0,63,29.83,10.0,NE,4.6,-,N/A,,Mostly Cloudy,50,2013-08-27 16:53:00
9:53 AM,48.0,35.1,61,29.83,10.0,NE,6.9,-,N/A,,Mostly Cloudy,50,2013-08-27 17:53:00
10:53 AM,51.1,36.0,56,29.81,10.0,East,4.6,-,N/A,,Mostly Cloudy,90,2013-08-27 18:53:00
11:53 AM,55.0,37.9,53,29.79,10.0,ENE,5.8,-,N/A,,Mostly Cloudy,70,2013-08-27 19:53:00
12:53 PM,57.0,39.0,51,29.78,10.0,Calm,Calm,-,N/A,,Mostly Cloudy,0,2013-08-27 20:53:00
1:53 PM,60.1,39.9,47,29.77,10.0,Variable,3.5,-,N/A,,Mostly Cloudy,0,2013-08-27 21:53:00
2:53 PM,62.1,41.0,46,29.75,10.0,SE,3.5,-,N/A,,Mostly Cloudy,140,2013-08-27 22:53:00
3:53 PM,63.0,39.9,43,29.73,10.0,Calm,Calm,-,N/A,,Mostly Cloudy,0,2013-08-27 23:53:00
4:53 PM,64.0,39.9,41,29.72,10.0,Calm,Calm,-,N/A,,Mostly Cloudy,0,2013-08-28 00:53:00
5:53 PM,64.0,41.0,43,29.70,10.0,Calm,Calm,-,N/A,,Mostly Cloudy,0,2013-08-28 01:53:00
6:53 PM,64.0,42.1,45,29.69,10.0,Calm,Calm,-,N/A,,Mostly Cloudy,0,2013-08-28 02:53:00
7:53 PM,64.0,43.0,46,29.68,10.0,WSW,3.5,-,N/A,,Mostly Cloudy,250,2013-08-28 03:53:00
8:53 PM,60.1,46.9,62,29.66,10.0,West,3.5,-,N/A,,Mostly Cloudy,270,2013-08-28 04:53:00
9:53 PM,57.9,45.0,62,29.66,10.0,NNW,3.5,-,N/A,,Mostly Cloudy,330,2013-08-28 05:53:00
10:53 PM,55.0,46.0,72,29.66,10.0,Calm,Calm,-,N/A,,Mostly Cloudy,0,2013-08-28 06:53:00
11:53 PM,53.1,46.9,80,29.65,10.0,Calm,Calm,-,N/A,,Mostly Cloudy,0,2013-08-28 07:53:00